轨道通信卫星FM17星 (ORBCOMM FM17)

导读 | 星芒AI

ORBCOMM FM17 是一颗由 ORBCOMM 公司运营的低轨通信卫星,属于其第二代卫星通信系统(OG2)的一部分。该卫星运行在约 560 公里的近地轨道,主要用于提供全球范围内的物联网(IoT)设备数据传输服务,适用于物流、运输、环境监测等领域。FM17 采用先进通信技术,支持双向数据通信,具有低功耗、高可靠性和广覆盖的特点,是构建全球机器对机器(M2M)通信网络的重要节点。

基本信息
目录编号:
25413
目录名称:
ORBCOMM FM 17
国际标识:
1998-046A
轨道中心:
EARTH
卫星名称:
轨道通信卫星FM17星
卫星全名:
轨道通信卫星FM17星 (ORBCOMM FM17)
卫星状态:
在轨 (已飞行10050 天)
发射日期:
1998-08-02 UTC
国别 :
(ORB)
星等 :
--
轨道信息
数据来源 国际轨道数据 AOE轨道数据
星历时间 2026-02-06T07:33:51+0800
14小时前
查看轨道信息
2026-02-04T15:00:00+0800
2天前
查看轨道信息
半长轴 7150.952km 7150.976km
偏心率 0.0002139 0.0002191
轨道倾角 44.993° 44.992°
近地点辐角 311.512° 305.248°
升交点赤经 233.745° 241.729°
平近点角 48.554° 310.791°
近地点 771.285km 771.272km
远地点 774.345km 774.406km
周期 100.301分钟 100.302分钟
每日圈数 14.356778 14.356708
详细信息
固有亮度:
8
最大亮度:
6.9
平衡模式:
三轴稳定
覆盖范围:
全球
运营商:
轨道通信公司
运营商所在国:
美国
制造商(研发单位):
轨道ATK公司
制造商所在国:
美国
使用方式:
暂无
卫星简介
轨道通信FM(Orbcomm FM)是一系列低地球轨道通信卫星,由美国卫星通信公司 Orbcomm运营。 截至2015年12月,已有63颗此类卫星绕地球运行。该卫星已退役。
2D轨道图
3D轨道图
轨道高度分析图
轨道倾角分析图
轨道综合分析图
查看轨道综合分析图